Location: *
(41.7492°S, 135.4150°W)
Time: 23:53:36
(UTC+00:00)

SL-4 R/B - Pass Details

Date: 20 September 2021
Orbit: 427 x 661 km, 51.6° (Epoch: 25 October)

Event Time Altitude Azimuth Distance (km) Brightness Sun altitude
Exits shadow 12:46:29 20° 210° (SSW) 1,533 4.2 -24.0°
Maximum altitude 12:48:44 29° 168° (SSE) 1,236 4.1 -23.6°
Drops below altitude 10° 12:52:58 10° 107° (ESE) 2,091 6.1 -22.9°
Sets 12:55:34 0° 95° (E) 2,985 7.1 -22.4°
